S/N Title Course Code Date Modified Action
1 CHE 532 Assignment I CHE 532 2019-02-17 07:24:50 Download
2 ENG 382 Assignment I ENG 382 2019-01-27 21:08:04 Download
3 ENG 282 Assignment I ENG 282 2019-01-27 21:03:31 Download
4 CHE 471 Assignment V CHE 471 2018-11-24 12:23:06 Download
5 Ethical Threats and Safeguards ACC 205 2018-11-22 09:45:55 Download
6 ENG 381 Assignment III ENG 381 2018-11-20 10:58:04 Download
7 Stakeholders and their influence ACC 205 2018-11-15 18:53:12 Download
8 ENG 281 Assignment IV ENG 281 2018-11-15 06:52:16 Download
9 ENG 281 Assignment III ENG 281 2018-11-15 06:17:45 Download
10 ENG 381 Assignment II ENG 381 2018-11-14 04:19:20 Download
11 CHE 471 Assignment IV CHE 471 2018-11-11 01:20:58 Download
12 Executorship ACC 409 2018-11-06 04:12:03 Download
13 Trusteeship ACC 409 2018-11-06 04:09:38 Download
14 Governance: Transparency and Disclosure ACC 205 2018-11-01 08:37:50 Download
15 Research Methodology Note ACC 309 2018-10-19 17:53:29 Download
16 ENG 281 Assignment II ENG 281 2018-10-18 01:59:40 Download
17 CHE 471 Assignment III CHE 471 2018-10-17 07:35:43 Download
18 Liquidation ACC 409 2018-10-15 06:22:21 Download
19 Bankruptcy ACC 409 2018-10-15 06:13:57 Download
20 CHE 531 Assignment II CHE 531 2018-10-08 18:29:35 Download
21 Conversion of Company to Partnership and Dissolution of Partnership ACC 301 2018-10-06 05:43:30 Download
22 Conversion of Partnership to Limited Liability Company ACC 301 2018-10-06 05:41:22 Download
23 Amalgamation and Absorption ACC 301 2018-10-06 05:34:16 Download
24 CHE 531 Assignment I CHE 531 2018-10-05 07:33:45 Download
25 CHE 531 Assignment I CHE 531 2018-10-05 07:31:39 Download
26 Concept of Corporate Governance ACC 205 2018-10-04 06:07:50 Download
27 ENG 381 Assignment I ENG 381 2018-10-01 23:20:14 Download
28 CHE 471 Assignment II CHE 471 2018-10-01 18:57:21 Download
29 CHE 471 Assignment I CHE 471 2018-10-01 18:52:25 Download
30 ENG 281 Assignment I ENG 281 2018-09-29 20:43:56 Download
31 World Distribution of Petroleum PTE 317 2018-09-28 14:02:35 Download
32 Technical Paper on Boom Technology PTE 518 2018-03-16 10:58:23 Download
33 PTE 518 Lecture Note 3 PTE 518 2018-03-16 10:54:48 Download
34 PTE 518 Lecture Note 2 PTE 518 2018-03-16 10:48:29 Download
35 Signal and Systems Adopted Manual MCT 304 2018-03-07 17:23:20 Download
36 Principles of Coagulation Screening 2 MLS 524 2018-02-05 08:51:52 Download
37 Principles of Coagulation Screening MLS 524 2018-02-05 08:49:43 Download
38 Blood Donor Selection and Screening MLS 306 2018-02-05 08:37:50 Download
39 The Agacher Strip War - Lesson Note PCS 412 2018-01-30 17:04:03 Download
40 Deepwater Horizon Presentation PTE 518 2018-01-30 17:03:43 Download
41 Course Outline PCS 412 2018-01-30 17:02:47 Download
42 Differences in Accounting Practices (Accounting Diversity) ACC 406 2018-01-30 02:25:27 Download
43 International Accounting-Introduction ACC 406 2018-01-30 02:24:01 Download
44 What is negotiation--Skills u need PCS 410 2018-01-29 21:41:24 Download
45 Plannig negotiation PCS 410 2018-01-29 21:36:29 Download
46 Sources of power in negotiation PCS 410 2018-01-29 21:35:08 Download
47 What is Neg & Approaches to Neg PCS 410 2018-01-29 21:33:14 Download
48 Obstacles to negotiation PCS 410 2018-01-29 21:32:23 Download
49 Negotiation Notes PCS 410 2018-01-29 21:25:28 Download
50 Mediation Notes 2 PCS 410 2018-01-29 21:24:57 Download
51 Mediation Notes PCS 410 2018-01-29 21:24:19 Download
52 Course Syllabus PCS 410 2018-01-29 21:19:55 Download
53 Lab Report Template CHE 302 2018-01-29 07:58:50 Download
54 SPE 61464 PTE 518 2018-01-23 16:55:09 Download
55 PTE 518 Lecture Note 1 PTE 518 2018-01-22 18:57:51 Download
56 ghsagfas GST 201 2018-01-17 12:35:49 Download
57 ACC 405 Study Material ACC 405 2017-12-08 14:44:41 Download
58 ACC 405 ACC 405 2017-12-08 14:42:12 Download
59 SMS/ACC 301 SMS 301 2017-12-08 14:38:26 Download
60 Professional Practice and Code of Ethics ACC 205 2017-11-29 13:24:07 Download
61 Hemoglobinopathies MLS 407 2017-11-25 11:03:54 Download
62 ITS 401 Gender Security in War and Peace Syllabus ITS 401 2017-11-24 14:37:44 Download
63 Draft Syllabus PCS 203 2017-11-24 14:20:42 Download
64 Lecture 4 Note CHE 431 2017-11-23 22:24:14 Download
65 Lecture Note 04 CHE 341 2017-11-23 20:45:22 Download
66 Lecture Note 04 2017-11-23 20:44:38 Download
67 Environment, Climate Change and Inter Rel PCS 203 2017-11-23 19:44:25 Download
68 Climate Change Treaties PCS 203 2017-11-23 19:42:40 Download
69 Ethics and Accountants ACC 205 2017-11-21 11:59:45 Download
70 Introduction to Accounting Standards ACC 301 2017-11-21 11:55:36 Download
71 ONLINE TEST 3 GST 113 2017-11-20 11:17:08 Download
72 bubbleT CHE 431 2017-11-17 12:51:14 Download
73 bubbleP CHE 431 2017-11-17 12:50:54 Download
74 dewP CHE 431 2017-11-17 12:50:37 Download
75 dewT CHE 431 2017-11-17 12:50:21 Download
76 pTFlash CHE 431 2017-11-17 12:49:17 Download
77 Lecture Note 2 CHE 431 2017-11-17 12:43:21 Download
78 Lecture Note 03 CHE 341 2017-11-16 23:07:44 Download
79 Organoleptic qualities of foods NTD 303 2017-11-13 15:42:26 Download
80 Gene expression MCB 301 2017-11-13 13:32:50 Download
81 Finite Difference Approximation_Corrected LN3 PTE 519 2017-11-13 11:48:13 Download
82 Peace Education on Nixty PCS 207 2017-11-13 09:08:48 Download
83 PTE 519 Lecture Note 5 PTE 519 2017-11-11 13:14:56 Download
84 PTE 519 Lecture Note 1_Derivation_Corrected PTE 519 2017-11-11 10:41:31 Download
85 TUTORIAL QUESTIONS FOR CHE 101 2017/2018 CHE 101 2017-11-09 16:10:38 Download
86 PHYLUM ANNELIDA ZOO 201 2017-11-09 15:23:36 Download
87 TUTORIAL QUESTIONS ZOO 201 2017-11-09 15:21:39 Download
88 CHE 311 SLIDES PART 11 CHE 311 2017-11-09 01:57:12 Download
89 TUTORIAL QUESTIONS BIO 103 2017-11-07 22:32:42 Download
90 NOTES PART 3 ENG 485 2017-11-07 06:49:10 Download
91 ABSTRACT WRITING ASSIGNMENT ENG 485 2017-11-07 06:44:03 Download
92 Contemporary Health Issues 1 (Lecture 7) AFE 101 2017-11-04 16:11:00 Download
93 Contemporary Health Issues 1 (Lecture 6) AFE 101 2017-11-04 15:59:03 Download
94 Contemporary Health Issues 1 (Lecture 5) AFE 101 2017-11-04 15:51:36 Download
95 Contemporary Health Issues 1 (Lecture 4) AFE 101 2017-11-04 15:50:36 Download
96 Contemporary Health Issues 1 (Lecture 3) AFE 101 2017-11-04 15:49:01 Download
97 Contemporary Health Issues 1 (Lecture 2) AFE 101 2017-11-04 15:47:03 Download
98 Human behavior in illness2 NSC 311 2017-11-03 16:44:20 Download
99 Human behavior in illness NSC 311 2017-11-03 16:42:29 Download
100 disease causation NSC 301 2017-11-03 16:40:53 Download
101 Introduction to Epidemiology NSC 301 2017-11-03 16:39:48 Download
102 Investigation of epidemics NSC 301 2017-11-03 16:38:41 Download
103 Descriptive studies NSC 301 2017-11-03 16:37:21 Download
104 CNS 3 NSC 407 2017-11-03 15:43:31 Download
105 CNS 2 NSC 407 2017-11-03 15:42:24 Download
106 Review of nervous system NSC 407 2017-11-03 15:40:18 Download
107 Blood disorders NSC 305 2017-11-03 15:38:28 Download
108 CVS 4 NSC 305 2017-11-03 15:36:12 Download
109 CVS 3 NSC 305 2017-11-03 15:30:59 Download
110 CVS2 NSC 305 2017-11-03 15:29:13 Download
111 Review of anatomy and physiology NSC 305 2017-11-03 15:28:35 Download
112 Resistance slide MCB 403 2017-11-03 10:46:36 Download
113 GMP MCB 403 2017-11-03 10:41:55 Download
114 PHYLUM MOLLUSCA ZOO 201 2017-11-02 21:15:13 Download
115 PHYLUM NEMATODA ZOO 201 2017-11-02 21:13:56 Download
116 PHYLUM PLATYHELMINTHES ZOO 201 2017-11-02 21:12:33 Download
117 PHYLUM CNIDARIA ZOO 201 2017-11-02 21:11:34 Download
118 PHYLUM PORIFERA ZOO 201 2017-11-02 21:10:25 Download
119 PHYLUM PROTOZOA ZOO 201 2017-11-02 21:09:11 Download
120 Microbial Genetics Slide MCB 301 2017-11-02 14:41:44 Download
121 lecture one AFE 101 2017-11-02 08:23:43 Download
122 3. Logic and its importance GST 113 2017-11-01 15:23:53 Download
123 Foreign Branches ACC 301 2017-11-01 01:36:55 Download
124 1. What Philosophy is slides GST 113 2017-10-30 23:48:16 Download
125 ONLINE TEST 2 GST 113 2017-10-30 23:42:11 Download
126 lecture one AFE 101 2017-10-30 15:57:43 Download
127 The Board of Directors ACC 205 2017-10-30 15:57:00 Download
128 Lecture 2 Note CHE 341 2017-10-30 09:38:28 Download
129 Lecture 2 2017-10-30 09:37:20 Download
130 Laboratory Glassware Cleaning MLS 201 2017-10-27 18:03:10 Download
131 PROJECT WORK FOR CSC409 CSC 409 2017-10-27 12:19:53 Download
132 Chapter 1 cont CSC 201 2017-10-27 12:08:39 Download
133 Chapter 1 CSC 201 2017-10-27 12:07:40 Download
134 Principles of Antibiotic usage MCB 403 2017-10-26 14:05:46 Download
135 CHE 311 SLIDES PART 1 CHE 311 2017-10-26 11:22:12 Download
136 Lecture 1 CHE 431 2017-10-26 06:31:36 Download
137 Course Outline ELS 121 2017-10-25 14:45:51 Download
138 Resistance note MCB 403 2017-10-25 14:35:09 Download
139 Linear Algebra MAT 205 2017-10-25 11:46:27 Download
140 Cytopathic effects MCB 311 2017-10-25 10:22:25 Download
141 Linear Algebra MAT 205 2017-10-24 14:05:45 Download
142 Set and Venn Diagrams MAT 101 2017-10-24 13:33:14 Download
143 Concept of Peace 2017-10-23 17:02:03 Download
144 Course Outline 2017-10-23 16:44:39 Download
145 Course outline PCS 103 2017-10-23 16:42:49 Download
146 PTE 519 Lecture Note 3 PTE 519 2017-10-20 12:55:07 Download
147 PTE 519 Lecture Note 4 PTE 519 2017-10-20 12:53:48 Download
148 Antibiotic Mechanisms of Action MCB 403 2017-10-18 09:49:30 Download
149 PCS 101 Course Syllabus PCS 101 2017-10-18 08:21:41 Download
150 Lecture note CHE 341 2017-10-17 22:54:49 Download
151 Migration and Trapping PTE 423 2017-10-17 19:31:19 Download
152 ONLINE TEST 1 GST 113 2017-10-17 15:23:46 Download
153 Resolution 1325 Basic PCS 401 2017-10-17 06:09:56 Download
154 Gender, conflict, and peace PCS 401 2017-10-17 06:08:52 Download
155 History of Peace Education PCS 207 2017-10-17 05:52:12 Download
156 History of Peace Education PCS 207 2017-10-17 05:48:21 Download
157 Key Thinkers in Peace Education PCS 207 2017-10-17 05:46:59 Download
158 Peace Education Definitions PCS 207 2017-10-17 05:46:39 Download
159 Key Thinkers in Peace Education PCS 207 2017-10-17 05:45:36 Download
160 History of Peace Education PCS 107 2017-10-17 05:44:42 Download
161 Peace Education Definitions PCS 207 2017-10-17 05:44:41 Download
162 PCS 207 Peace Education and Culture of Peace Syllabus PCS 207 2017-10-17 05:43:58 Download
163 Approaches to Corporate Governance ACC 205 2017-10-16 21:55:31 Download
164 Agency Theory ACC 205 2017-10-16 21:53:46 Download
165 Origing of Petroleum PTE 423 2017-10-14 13:05:49 Download
166 Mining and Mineral Resources PTE 317 2017-10-14 11:26:40 Download
167 GST 113 COURSE OUTLINE GST 113 2017-10-12 23:04:38 Download
168 nutrient-drug interaction NTD 401 2017-10-12 12:58:48 Download
169 Additional notes on Drilling fluid test PTE 313 2017-10-11 18:22:31 Download
170 Drilling fluid- Field test PTE 313 2017-10-11 18:17:23 Download